EDDA-1 300F

导读

EDDA-1 300F(NORAD编号69018)是纳入北美防空司令部空间监测体系的人造空间目标。NORAD编号为其提供全球唯一身份标识,支撑全球航天机构对该目标的轨道监测与碰撞风险预警。公开航天数据库可查询其轨道参数,该目标主要服务于航天技术试验相关任务,是近地轨道众多空间资产中的一员,其运行数据对空间态势感知、轨道安全研究具有参考价值,目前可通过开源卫星追踪平台查询其实时位置与轨道信息。

Basic Information
目录编号:
69018
目录名称:
PELICAN-8 300F
国际标识:
2026-100AQ
轨道中心:
EARTH
卫星名称:
EDDA-1 300F
卫星全名:
EDDA-1 300F
卫星状态:
在轨 (已飞行125 天)
发射日期:
2026-05-03 UTC
国别 :
美国 (US)
星等 :
--
Orbit Information
数据来源 国际轨道数据
星历时间: 2026-09-05T07:01:37+0800
14小时前
查看轨道信息
半长轴: 6863.848km
偏心率: 0.0002899
轨道倾角: 97.330°
近地点辐角 116.142°
升交点赤经 144.488°
平近点角 244.012°
近地点: 483.721km
远地点: 487.701km
周期: 94.322分钟
每日圈数: 15.266917
Detailed Information
使用方式:
暂无
2D Orbit Map
3D Orbit Map
Orbit Altitude Analysis Chart
Orbit Inclination Analysis Chart
Orbit Comprehensive Analysis Chart
View Comprehensive Chart
Conjunction Data List
Event ID Objects TCA Miss Dist (km) Collision Risk Probability Collision Risk Index (CRI) Action
CDM_260906-012405-308306-901821
2026-09-06T
01:24:04+0000
2.840 km
极远距离
1.130896E-6 低风险 0.36